RADUGA 31 [-]

Last updated on Wed Jun 28 2023 00:02:57 GMT+0000 (Coordinated Universal Time)

1 23010U 94012A 23177.75511815 -.00000338 00000+0 00000+0 0 9998 2 23010 14.5655 356.4383 0006587 111.7971 183.3429 1.00261580107459
UTC large
Height (km)
Speed (km/s)
/
Latitude / Longitude
Inclination (degrees)
Orbital Period (minutes)
Azimuth
Elevation
Range (km)
Doppler Factor

Next 0 passes for location: London (51.5072 / 0.1276)

Sorry there are no passes over London.
RADUGA 31 [-]